Location: Ffm
(50.0000°N, 8.5000°E)
Time: 10:42:08
(UTC+01:00)

Envisat - Pass Details

Date: 28 October 2020
Orbit: 764 x 766 km, 98.1° (Epoch: 03 December)

Event Time Altitude Azimuth Distance (km) Brightness Sun altitude
Rises 18:39:47 0° 205° (SSW) 3,221 6.6 -15.1°
Reaches altitude 10° 18:42:37 10° 221° (SW) 2,300 6.1 -15.5°
Maximum altitude 18:46:26 21° 270° (W) 1,666 5.8 -16.1°
Drops below altitude 10° 18:50:16 10° 319° (NW) 2,313 6.0 -16.7°
Sets 18:53:09 0° 335° (NNW) 3,245 6.6 -17.2°
